Satellite: INMARSAT 3-F1
Catalog number: 23839
Epoch time:      102362.74878715
Element set:     841 
Inclination:        0.0618 deg
RA of node:        18.2214 deg
Eccentricity:    0.0005592
Arg of perigee:   221.8028 deg
Mean anomaly:     190.5550 deg
Mean motion:    1.00274532 rev/day
Decay rate:    2.4999E-007 rev/day^2
Epoch rev:            2469
Checksum:              299

Satellite: ASTRA 1F
Catalog number: 23842
Epoch time:      102364.00000000
Element set:     555 
Inclination:        0.0122 deg
RA of node:       319.8851 deg
Eccentricity:    0.0002995
Arg of perigee:    65.1991 deg
Mean anomaly:      92.4014 deg
Mean motion:    1.00273184 rev/day
Decay rate:    1.2799E-006 rev/day^2
Epoch rev:            2461
Checksum:              248

Satellite: JAS 2
Catalog number: 24278
Epoch time:      103001.91392537
Element set:     574 
Inclination:       98.5308 deg
RA of node:       159.6223 deg
Eccentricity:    0.0350961
Arg of perigee:   340.1754 deg
Mean anomaly:      18.6023 deg
Mean motion:   13.52867924 rev/day
Decay rate:   -5.9999E-008 rev/day^2
Epoch rev:           31486
Checksum:              339

Satellite: UNAMSAT
Catalog number: 24305
Epoch time:      103001.91672045
Element set:     668 
Inclination:       82.9345 deg
RA of node:       298.0220 deg
Eccentricity:    0.0030430
Arg of perigee:   339.5200 deg
Mean anomaly:      20.4725 deg
Mean motion:   13.73445333 rev/day
Decay rate:    2.0499E-006 rev/day^2
Epoch rev:           31694
Checksum:              275

Satellite: INMARSAT 3-F2
Catalog number: 24307
Epoch time:      102365.27116899
Element set:     64 
Inclination:        0.0479 deg
RA of node:        30.0937 deg
Eccentricity:    0.0004704
Arg of perigee:   249.5898 deg
Mean anomaly:     261.9372 deg
Mean motion:    1.00270574 rev/day
Decay rate:   -1.1700E-006 rev/day^2
Epoch rev:            2312
Checksum:              282

Satellite: HOT BIRD 2
Catalog number: 24665
Epoch time:      102364.09542247
Element set:     337 
Inclination:        0.0380 deg
RA of node:       203.9859 deg
Eccentricity:    0.0010678
Arg of perigee:    49.4036 deg
Mean anomaly:     252.3771 deg
Mean motion:    1.00274592 rev/day
Decay rate:    9.5999E-007 rev/day^2
Epoch rev:            2275
Checksum:              310

Satellite: INMARSAT 3-F3
Catalog number: 24674
Epoch time:      103001.47477817
Element set:     959 
Inclination:        0.0509 deg
RA of node:       358.4031 deg
Eccentricity:    0.0004289
Arg of perigee:   274.2598 deg
Mean anomaly:     177.0430 deg
Mean motion:    1.00273070 rev/day
Decay rate:    4.3000E-007 rev/day^2
Epoch rev:            2210
Checksum:              270

Satellite: GOES 10
Catalog number: 24786
Epoch time:      102364.36769851
Element set:     481 
Inclination:        0.0078 deg
RA of node:        67.7932 deg
Eccentricity:    0.0002732
Arg of perigee:   251.6039 deg
Mean anomaly:     136.1101 deg
Mean motion:    1.00273684 rev/day
Decay rate:    9.7999E-007 rev/day^2
Epoch rev:            2083
Checksum:              306

Satellite: INMARSAT 3-F4
Catalog number: 24819
Epoch time:      103001.38393552
Element set:     863 
Inclination:        0.0269 deg
RA of node:       310.3382 deg
Eccentricity:    0.0003632
Arg of perigee:   340.3879 deg
Mean anomaly:     254.1302 deg
Mean motion:    1.00270503 rev/day
Decay rate:   -2.8100E-006 rev/day^2
Epoch rev:            2052
Checksum:              247

Satellite: FENGYUN 2A
Catalog number: 24834
Epoch time:      102363.87585822
Element set:     941 
Inclination:        2.4466 deg
RA of node:        88.8933 deg
Eccentricity:    0.0001931
Arg of perigee:   238.4439 deg
Mean anomaly:     172.5930 deg
Mean motion:    1.00268131 rev/day
Decay rate:   -1.9100E-006 rev/day^2
Epoch rev:            2033
Checksum:              288

Satellite: HOT BIRD 3
Catalog number: 24931
Epoch time:      102364.09542247
Element set:     418 
Inclination:        0.0070 deg
RA of node:       329.5839 deg
Eccentricity:    0.0008855
Arg of perigee:   285.9646 deg
Mean anomaly:     250.1886 deg
Mean motion:    1.00273530 rev/day
Decay rate:    9.5000E-007 rev/day^2
Epoch rev:            1957
Checksum:              298

Satellite: METEOSAT 7
Catalog number: 24932
Epoch time:      102362.83210071
Element set:     220 
Inclination:        0.1072 deg
RA of node:        18.3543 deg
Eccentricity:    0.0001224
Arg of perigee:   231.1370 deg
Mean anomaly:     147.1122 deg
Mean motion:    1.00270373 rev/day
Decay rate:    5.0000E-008 rev/day^2
Epoch rev:            1950
Checksum:              204

Satellite: ASTRA 1G
Catalog number: 25071
Epoch time:      102364.00000000
Element set:     386 
Inclination:        0.0122 deg
RA of node:       319.8851 deg
Eccentricity:    0.0002995
Arg of perigee:    65.1991 deg
Mean anomaly:      92.3633 deg
Mean motion:    1.00273184 rev/day
Decay rate:    1.2799E-006 rev/day^2
Epoch rev:            1863
Checksum:              257

Satellite: INMARSAT 3-F5
Catalog number: 25153
Epoch time:      102365.01026622
Element set:     826 
Inclination:        0.4520 deg
RA of node:       357.5009 deg
Eccentricity:    0.0003812
Arg of perigee:   306.4439 deg
Mean anomaly:     183.9650 deg
Mean motion:    1.00269000 rev/day
Decay rate:    1.4700E-006 rev/day^2
Epoch rev:            1800
Checksum:              246

Satellite: HOT BIRD 4
Catalog number: 25237
Epoch time:      102364.09542247
Element set:     323 
Inclination:        0.0611 deg
RA of node:       171.7992 deg
Eccentricity:    0.0008910
Arg of perigee:    46.8775 deg
Mean anomaly:     287.0610 deg
Mean motion:    1.00272623 rev/day
Decay rate:    9.5000E-007 rev/day^2
Epoch rev:            1803
Checksum:              267

Satellite: NOAA 15
Catalog number: 25338
Epoch time:      103001.96666520
Element set:     959 
Inclination:       98.5517 deg
RA of node:        25.4050 deg
Eccentricity:    0.0011393
Arg of perigee:    94.7019 deg
Mean anomaly:     265.5461 deg
Mean motion:   14.24222050 rev/day
Decay rate:    2.8599E-006 rev/day^2
Epoch rev:           24102
Checksum:              299

Satellite: RESURS O1-N4
Catalog number: 25394
Epoch time:      103001.92188163
Element set:     438 
Inclination:       98.6381 deg
RA of node:        80.7128 deg
Eccentricity:    0.0000682
Arg of perigee:   222.0484 deg
Mean anomaly:     138.0636 deg
Mean motion:   14.23860040 rev/day
Decay rate:    3.1399E-006 rev/day^2
Epoch rev:           23275
Checksum:              300

Satellite: TMSAT
Catalog number: 25396
Epoch time:      103001.95020273
Element set:     898 
Inclination:       98.6334 deg
RA of node:        79.9688 deg
Eccentricity:    0.0001674
Arg of perigee:   267.6697 deg
Mean anomaly:      92.4292 deg
Mean motion:   14.23494565 rev/day
Decay rate:   -4.3000E-007 rev/day^2
Epoch rev:           23275
Checksum:              337

Satellite: TECHSAT 1B
Catalog number: 25397
Epoch time:      103001.95357640
Element set:     135 
Inclination:       98.6290 deg
RA of node:        78.9174 deg
Eccentricity:    0.0000425
Arg of perigee:   319.6936 deg
Mean anomaly:      40.4210 deg
Mean motion:   14.22947896 rev/day
Decay rate:    1.3200E-006 rev/day^2
Epoch rev:           23272
Checksum:              414

Satellite: ASTRA 2A
Catalog number: 25462
Epoch time:      102364.00000000
Element set:     527 
Inclination:        0.0385 deg
RA of node:       308.7109 deg
Eccentricity:    0.0004824
Arg of perigee:   280.8620 deg
Mean anomaly:     256.9180 deg
Mean motion:    1.00272094 rev/day
Decay rate:    1.5800E-006 rev/day^2
Epoch rev:            1593
Checksum:              241

Satellite: EUTELSAT W2
Catalog number: 25491
Epoch time:      102363.84192703
Element set:     553 
Inclination:        0.0095 deg
RA of node:       262.7021 deg
Eccentricity:    0.0003587
Arg of perigee:     9.8783 deg
Mean anomaly:     144.6232 deg
Mean motion:    1.00273532 rev/day
Decay rate:    1.1299E-006 rev/day^2
Epoch rev:            1554
Checksum:              273

Satellite: HOT BIRD 5
Catalog number: 25495
Epoch time:      102363.91271007
Element set:     486 
Inclination:        0.0427 deg
RA of node:       155.6456 deg
Eccentricity:    0.0003909
Arg of perigee:   128.1244 deg
Mean anomaly:     176.0723 deg
Mean motion:    1.00268942 rev/day
Decay rate:    1.6400E-006 rev/day^2
Epoch rev:            1551
Checksum:              273

Satellite: SEDSAT 1
Catalog number: 25509
Epoch time:      103001.60286604
Element set:     747 
Inclination:       31.4322 deg
RA of node:        64.0324 deg
Eccentricity:    0.0358294
Arg of perigee:   244.0691 deg
Mean anomaly:     112.2593 deg
Mean motion:   14.27335794 rev/day
Decay rate:    1.5830E-005 rev/day^2
Epoch rev:           21845
Checksum:              284

Satellite: PAN SAT
Catalog number: 25520
Epoch time:      103001.69430911
Element set:     624 
Inclination:       28.4647 deg
RA of node:       182.6873 deg
Eccentricity:    0.0005850
Arg of perigee:   197.6350 deg
Mean anomaly:     162.3721 deg
Mean motion:   15.13619633 rev/day
Decay rate:    2.6960E-005 rev/day^2
Epoch rev:           23032
Checksum:              401

Satellite: ISS (ZARYA)
Catalog number: 25544
Epoch time:      103001.84840740
Element set:     535 
Inclination:       51.6352 deg
RA of node:       135.7682 deg
Eccentricity:    0.0004552
Arg of perigee:   349.5526 deg
Mean anomaly:     147.8977 deg
Mean motion:   15.58394430 rev/day
Decay rate:    3.7865E-004 rev/day^2
Epoch rev:           23509
Checksum:              429

